User: anonymous
Location: Oshawa
(43.9000°N, 78.8670°W)
Time: 17:30:37
(UTC-04:00)
Language:

Explorer 7 - Orbit

View from above orbital plane
View from above orbital plane
View from above satellite
View from above satellite

Ground track
Ground track

The orbit data is extracted from the following two-line orbital elements,

1 00022U 59009A   14114.45130161  .00005202  00000-0  43495-3 0  8894
2 00022 050.2857 173.2378 0156145 339.7825 019.7474 14.88865780889645
Epoch (UTC): 24 April 2014 10:49:52
Eccentricity: 0.0156145
inclination: 50.2857°
perigee height: 492 km
apogee height: 710 km
right ascension of ascending node: 173.2378°
argument of perigee: 339.7825°
revolutions per day: 14.88865780
mean anomaly at epoch: 19.7474°
orbit number at epoch: 88964

The dashed part of the orbit path shows where the satellite is in the earth's shadow,  

DLR